PICO-01I002

导读 | 星芒AI

PICO-01I002 是一颗小型卫星,属于 PICO 系列,主要用于教育和科研目的。该卫星由高校或研究机构研制,旨在验证微小卫星平台技术,开展空间科学实验和通信测试。其设计紧凑、成本较低,具备一定的自主运行能力。PICO-01I002 通常搭载简易的遥测、遥控和遥感设备,用于收集轨道数据和环境信息。该卫星的发射有助于推动航天技术普及和人才培养,为未来更复杂的卫星任务奠定基础。

基本信息
目录编号:
58345
目录名称:
PICO-01I002
国际标识:
2023-174CT
轨道中心:
EARTH
卫星名称:
PICO-01I002
卫星全名:
--
卫星状态:
已陨落 最后检测时间 2024-06-26
发射日期:
2023-11-11 UTC
国别 :
意大利 (IT)
星等 :
--
轨道信息
数据来源 国际轨道数据
星历时间: 2024-06-27T03:29:24+0800
轨道信息已过期534天
半长轴: 6550.168km
偏心率: 0.0016044
轨道倾角: 97.413°
近地点辐角 270.639°
升交点赤经 259.189°
平近点角 89.307°
近地点: 161.523km
远地点: 182.543km
周期: 87.930分钟
每日圈数: 16.376617
详细信息
使用方式:
暂无